FW5236 Weather Reports


time (UTC)temp
C
wind
direction
speed
KPH
gust
KPH
rain 1hr
cm
rain 24hr
cm
rain mn
cm
humidity
%
barometer
mb
20260505023030 23 20 0.0 8.0 0.00 0.00 0.00 49 1010.1
20260505021530 23 29 1.6 8.0 0.00 0.00 0.00 47 1010.1
20260505020107 24 52 3.2 8.0 0.00 0.00 0.00 45 1010.0
20260505014532 25 43 1.6 6.4 0.00 0.00 0.00 44 1010.0
20260505013030 25 42 1.6 8.0 0.00 0.00 0.00 42 1010.0
20260505011530 26 46 3.2 11.3 0.00 0.00 0.00 42 1010.0
20260505010032 26 47 3.2 9.7 0.00 0.00 0.00 40 1009.9
20260505003103 27 47 3.2 8.0 0.00 0.00 0.00 39 1010.1
20260505001606 27 53 3.2 9.7 0.00 0.00 0.00 39 1010.1
20260505000034 27 42 3.2 8.0 0.00 0.00 0.00 38 1010.2
20260504234531 27 42 3.2 8.0 0.00 0.00 0.00 38 1010.2
20260504233031 28 50 3.2 9.7 0.00 0.00 0.00 37 1010.2
20260504231530 28 55 1.6 6.4 0.00 0.00 0.00 37 1010.4
20260504230107 28 56 3.2 8.0 0.00 0.00 0.00 36 1010.6
20260504224531 28 49 3.2 8.0 0.00 0.00 0.00 36 1010.7
20260504223106 28 46 3.2 8.0 0.00 0.00 0.00 36 1010.8
20260504221530 28 37 3.2 9.7 0.00 0.00 0.00 35 1010.9
20260504220029 28 46 1.6 9.7 0.00 0.00 0.00 34 1011.0
20260504214531 28 44 1.6 8.0 0.00 0.00 0.00 31 1011.2
20260504213030 28 27 1.6 9.7 0.00 0.00 0.00 30 1011.3
20260504211527 28 26 1.6 6.4 0.00 0.00 0.00 30 1011.3
20260504210032 28 42 1.6 6.4 0.00 0.00 0.00 31 1011.5
20260504203031 27 45 1.6 6.4 0.00 0.00 0.00 35 1011.9
20260504201525 27 40 1.6 8.0 0.00 0.00 0.00 35 1011.9
20260504200032 27 44 1.6 8.0 0.00 0.00 0.00 36 1012.0
20260504194527 26 51 1.6 6.4 0.00 0.00 0.00 37 1012.1
20260504193031 26 51 1.6 6.4 0.00 0.00 0.00 38 1012.0
20260504191527 26 40 3.2 8.0 0.00 0.00 0.00 40 1012.2
20260504190031 25 32 1.6 11.3 0.00 0.00 0.00 39 1012.3
20260504184531 25 43 1.6 8.0 0.00 0.00 0.00 40 1012.4
20260504183031 25 45 3.2 8.0 0.00 0.00 0.00 41 1012.4
20260504181529 25 46 1.6 8.0 0.00 0.00 0.00 42 1012.4
20260504180031 25 28 1.6 8.0 0.00 0.00 0.00 42 1012.4
20260504174531 25 46 0.0 4.8 0.00 0.00 0.00 42 1012.5
20260504173103 25 41 0.0 3.2 0.00 0.00 0.00 42 1012.5
20260504110107 11 227 3.2 4.8 0.00 0.00 0.00 62 1012.1
20260504090104 13 234 4.8 8.0 0.00 0.00 0.00 58 1012.3
20260504081530 14 233 3.2 6.4 0.00 0.00 0.00 57 1012.5
20260504060107 15 228 0.0 4.8 0.00 0.00 0.00 56 1012.3
20260504050107 17 241 3.2 8.0 0.00 0.00 0.00 49 1012.1
20260504044530 17 237 3.2 6.4 0.00 0.00 0.00 46 1012.1
20260504041607 17 236 1.6 4.8 0.00 0.00 0.00 50 1011.8
20260504040037 17 165 0.0 3.2 0.00 0.00 0.00 52 1011.7
20260504033031 21 157 0.0 1.6 0.00 0.00 0.00 41 1011.3
20260504031532 22 157 0.0 1.6 0.00 0.00 0.00 40 1011.2
20260504030029 23 157 0.0 1.6 0.00 0.00 0.00 39 1011.1
20260504024532 27 157 0.0 1.6 0.00 0.00 0.00 36 1011.0